カタログに戻る

STARLINK-35086

運用中通信VLEO
NORAD 65699·PAYLOAD·🇺🇸 United States

打ち上げ Sep 21, 2025 から Cape Canaveral Space Force Station

Loading…

次のパス (今後24時間)

TLE

最新Source: CelesTrak SupGP

元期: Sep 14, 2026, 20:56 UTC

1 65699C 25212Z   26257.87270833  .00010826  00000+0  34794-3 0  2570
2 65699  53.1574 186.1273 0001448 103.5320 116.7250 15.31712979    19

AllMySatでSTARLINK-35086をリアルタイム追跡

Download on the App Store